| time (UTC) | temp C | wind direction | speed KPH | gust KPH | rain 1hr cm | rain 24hr cm | rain mn cm | humidity % | barometer mb |
| 20260508135524 | 11 | 180 | 9.7 | 16.1 | 0.00 | 0.00 | 0.00 | 41 | 1004.8 |
| 20260508135022 | 11 | 209 | 8.0 | 14.5 | 0.00 | 0.00 | 0.00 | 43 | 1004.9 |
| 20260508134521 | 11 | 187 | 6.4 | 14.5 | 0.00 | 0.00 | 0.00 | 44 | 1005.1 |
| 20260508134019 | 11 | 214 | 6.4 | 12.9 | 0.00 | 0.00 | 0.00 | 44 | 1005.2 |
| 20260508133518 | 11 | 198 | 4.8 | 11.3 | 0.00 | 0.00 | 0.00 | 45 | 1005.2 |
| 20260508133024 | 10 | 195 | 3.2 | 11.3 | 0.00 | 0.00 | 0.00 | 49 | 1005.2 |
| 20260508132517 | 10 | 212 | 3.2 | 9.7 | 0.00 | 0.00 | 0.00 | 50 | 1005.3 |
| 20260508132014 | 9 | 179 | 3.2 | 9.7 | 0.00 | 0.00 | 0.00 | 51 | 1005.3 |
| 20260508131512 | 9 | 211 | 3.2 | 6.4 | 0.00 | 0.00 | 0.00 | 52 | 1005.4 |
| 20260508131010 | 8 | 208 | 3.2 | 8.0 | 0.00 | 0.00 | 0.00 | 53 | 1005.4 |
| 20260508130508 | 8 | 194 | 3.2 | 9.7 | 0.00 | 0.00 | 0.00 | 53 | 1005.3 |
| 20260508130011 | 7 | 192 | 4.8 | 8.0 | 0.00 | 0.00 | 0.00 | 54 | 1005.5 |
| 20260508125506 | 7 | 179 | 1.6 | 9.7 | 0.00 | 0.00 | 0.00 | 55 | 1005.4 |
| 20260508125004 | 7 | 208 | 3.2 | 9.7 | 0.00 | 0.00 | 0.00 | 55 | 1005.5 |
| 20260508124504 | 7 | 169 | 3.2 | 8.0 | 0.00 | 0.00 | 0.00 | 56 | 1005.5 |
| 20260508124003 | 6 | 161 | 3.2 | 8.0 | 0.00 | 0.00 | 0.00 | 56 | 1005.6 |
| 20260508123501 | 6 | 178 | 1.6 | 4.8 | 0.00 | 0.00 | 0.00 | 57 | 1005.6 |
| 20260508123002 | 6 | 178 | 1.6 | 8.0 | 0.00 | 0.00 | 0.00 | 58 | 1005.6 |
| 20260508122501 | 5 | 175 | 1.6 | 8.0 | 0.00 | 0.00 | 0.00 | 59 | 1005.6 |
| 20260508122059 | 5 | 178 | 1.6 | 9.7 | 0.00 | 0.00 | 0.00 | 59 | 1005.5 |
| 20260508121559 | 5 | 188 | 1.6 | 6.4 | 0.00 | 0.00 | 0.00 | 59 | 1005.6 |
| 20260508121057 | 5 | 190 | 3.2 | 6.4 | 0.00 | 0.00 | 0.00 | 59 | 1005.6 |
| 20260508120556 | 5 | 185 | 1.6 | 6.4 | 0.00 | 0.00 | 0.00 | 59 | 1005.6 |
| 20260508120058 | 5 | 182 | 1.6 | 6.4 | 0.00 | 0.00 | 0.00 | 60 | 1005.7 |
| 20260508115556 | 4 | 182 | 1.6 | 6.4 | 0.00 | 0.00 | 0.00 | 61 | 1005.8 |
| 20260508115057 | 4 | 182 | 1.6 | 6.4 | 0.00 | 0.00 | 0.00 | 61 | 1005.6 |
| 20260508114554 | 3 | 180 | 3.2 | 8.0 | 0.00 | 0.00 | 0.00 | 61 | 1005.7 |
| 20260508114052 | 3 | 187 | 1.6 | 8.0 | 0.00 | 0.00 | 0.00 | 61 | 1005.8 |
| 20260508113551 | 3 | 191 | 4.8 | 8.0 | 0.00 | 0.00 | 0.00 | 61 | 1005.8 |
| 20260508113051 | 3 | 187 | 3.2 | 9.7 | 0.00 | 0.00 | 0.00 | 61 | 1005.8 |
| 20260508112550 | 3 | 177 | 3.2 | 8.0 | 0.00 | 0.00 | 0.00 | 61 | 1005.8 |
| 20260508112050 | 3 | 165 | 3.2 | 9.7 | 0.00 | 0.00 | 0.00 | 62 | 1005.8 |
| 20260508111552 | 3 | 171 | 3.2 | 8.0 | 0.00 | 0.00 | 0.00 | 62 | 1005.8 |
| 20260508111048 | 3 | 171 | 1.6 | 4.8 | 0.00 | 0.00 | 0.00 | 62 | 1005.9 |
| 20260508110547 | 3 | 169 | 0.0 | 4.8 | 0.00 | 0.00 | 0.00 | 62 | 1005.9 |
| 20260508110047 | 3 | 169 | 0.0 | 3.2 | 0.00 | 0.00 | 0.00 | 62 | 1006.1 |
| 20260508105548 | 3 | 169 | 0.0 | 3.2 | 0.00 | 0.00 | 0.00 | 61 | 1006.0 |
| 20260508105046 | 3 | 169 | 0.0 | 4.8 | 0.00 | 0.00 | 0.00 | 61 | 1006.1 |
| 20260508104546 | 3 | 169 | 1.6 | 8.0 | 0.00 | 0.00 | 0.00 | 61 | 1006.0 |
| 20260508104045 | 3 | 171 | 4.8 | 8.0 | 0.00 | 0.00 | 0.00 | 60 | 1006.0 |
| 20260508103545 | 3 | 160 | 3.2 | 8.0 | 0.00 | 0.00 | 0.00 | 60 | 1006.1 |
| 20260508103044 | 3 | 185 | 3.2 | 6.4 | 0.00 | 0.00 | 0.00 | 61 | 1006.1 |
| 20260508102542 | 3 | 169 | 3.2 | 8.0 | 0.00 | 0.00 | 0.00 | 62 | 1006.1 |
| 20260508102045 | 3 | 162 | 3.2 | 4.8 | 0.00 | 0.00 | 0.00 | 61 | 1006.2 |
| 20260508101542 | 3 | 161 | 0.0 | 3.2 | 0.00 | 0.00 | 0.00 | 62 | 1006.2 |
| 20260508101041 | 3 | 161 | 1.6 | 4.8 | 0.00 | 0.00 | 0.00 | 63 | 1006.2 |
| 20260508100540 | 3 | 161 | 1.6 | 8.0 | 0.00 | 0.00 | 0.00 | 63 | 1006.2 |
| 20260508100051 | 3 | 159 | 3.2 | 8.0 | 0.00 | 0.00 | 0.00 | 63 | 1006.4 |
| 20260508095540 | 3 | 122 | 1.6 | 4.8 | 0.00 | 0.00 | 0.00 | 64 | 1006.4 |
| 20260508095036 | 3 | 98 | 1.6 | 4.8 | 0.00 | 0.00 | 0.00 | 65 | 1006.4 |
| 20260508094539 | 4 | 53 | 0.0 | 3.2 | 0.00 | 0.00 | 0.00 | 65 | 1006.5 |
| 20260508094035 | 4 | 53 | 1.6 | 4.8 | 0.00 | 0.00 | 0.00 | 65 | 1006.5 |
| 20260508093534 | 4 | 53 | 1.6 | 4.8 | 0.00 | 0.00 | 0.00 | 65 | 1006.6 |
| 20260508093034 | 4 | 351 | 0.0 | 0.0 | 0.00 | 0.00 | 0.00 | 65 | 1006.6 |
| 20260508092534 | 4 | 355 | 0.0 | 0.0 | 0.00 | 0.00 | 0.00 | 64 | 1006.6 |
| 20260508092032 | 4 | 355 | 0.0 | 0.0 | 0.00 | 0.00 | 0.00 | 63 | 1006.7 |
| 20260508091533 | 4 | 355 | 0.0 | 0.0 | 0.00 | 0.00 | 0.00 | 64 | 1006.6 |
| 20260508091034 | 4 | 355 | 0.0 | 0.0 | 0.00 | 0.00 | 0.00 | 66 | 1006.7 |
| 20260508090535 | 3 | 355 | 0.0 | 0.0 | 0.00 | 0.00 | 0.00 | 65 | 1006.8 |
| 20260508090048 | 3 | 355 | 0.0 | 0.0 | 0.00 | 0.00 | 0.00 | 66 | 1006.8 |
| 20260508085531 | 3 | 355 | 0.0 | 0.0 | 0.00 | 0.00 | 0.00 | 65 | 1006.8 |
| 20260508085031 | 3 | 355 | 0.0 | 0.0 | 0.00 | 0.00 | 0.00 | 65 | 1006.8 |
| 20260508084531 | 3 | 355 | 0.0 | 0.0 | 0.00 | 0.00 | 0.00 | 65 | 1006.8 |
| 20260508084030 | 3 | 355 | 0.0 | 0.0 | 0.00 | 0.00 | 0.00 | 65 | 1006.8 |
| 20260508083533 | 3 | 355 | 0.0 | 0.0 | 0.00 | 0.00 | 0.00 | 65 | 1006.8 |
| 20260508083030 | 3 | 355 | 0.0 | 0.0 | 0.00 | 0.00 | 0.00 | 65 | 1006.8 |
| 20260508082528 | 3 | 355 | 0.0 | 0.0 | 0.00 | 0.00 | 0.00 | 64 | 1006.8 |
| 20260508082028 | 3 | 355 | 0.0 | 0.0 | 0.00 | 0.00 | 0.00 | 63 | 1006.7 |
| 20260508081532 | 3 | 355 | 0.0 | 0.0 | 0.00 | 0.00 | 0.00 | 62 | 1006.8 |
| 20260508081027 | 3 | 355 | 0.0 | 1.6 | 0.00 | 0.00 | 0.00 | 62 | 1006.8 |
| 20260508080531 | 3 | 355 | 0.0 | 1.6 | 0.00 | 0.00 | 0.00 | 61 | 1007.0 |
| 20260508080025 | 3 | 355 | 0.0 | 1.6 | 0.00 | 0.00 | 0.00 | 60 | 1007.0 |
| 20260508075525 | 4 | 355 | 0.0 | 1.6 | 0.00 | 0.00 | 0.00 | 60 | 1007.0 |
| 20260508075025 | 4 | 355 | 0.0 | 3.2 | 0.00 | 0.00 | 0.00 | 60 | 1007.0 |
| 20260508074526 | 4 | 355 | 1.6 | 3.2 | 0.00 | 0.00 | 0.00 | 60 | 1007.0 |
| 20260508074023 | 4 | 355 | 0.0 | 3.2 | 0.00 | 0.00 | 0.00 | 59 | 1007.1 |
| 20260508073523 | 4 | 355 | 0.0 | 1.6 | 0.00 | 0.00 | 0.00 | 59 | 1007.0 |
| 20260508073025 | 4 | 355 | 0.0 | 3.2 | 0.00 | 0.00 | 0.00 | 59 | 1007.1 |
| 20260508072521 | 4 | 355 | 1.6 | 3.2 | 0.00 | 0.00 | 0.00 | 59 | 1007.1 |
| 20260508072021 | 4 | 355 | 1.6 | 3.2 | 0.00 | 0.00 | 0.00 | 60 | 1007.1 |
| 20260508071526 | 4 | 355 | 0.0 | 4.8 | 0.00 | 0.00 | 0.00 | 60 | 1007.2 |
| 20260508071022 | 4 | 355 | 1.6 | 4.8 | 0.00 | 0.00 | 0.00 | 60 | 1007.2 |
| 20260508070520 | 4 | 355 | 0.0 | 4.8 | 0.00 | 0.00 | 0.00 | 61 | 1007.3 |
| 20260508070020 | 4 | 355 | 0.0 | 3.2 | 0.00 | 0.00 | 0.00 | 61 | 1007.3 |
| 20260508065520 | 4 | 355 | 0.0 | 3.2 | 0.00 | 0.00 | 0.00 | 61 | 1007.3 |
| 20260508065023 | 4 | 355 | 1.6 | 3.2 | 0.00 | 0.00 | 0.00 | 61 | 1007.3 |
| 20260508064519 | 4 | 19 | 0.0 | 0.0 | 0.00 | 0.00 | 0.00 | 57 | 1007.3 |
| 20260508064017 | 3 | 19 | 0.0 | 0.0 | 0.00 | 0.00 | 0.00 | 57 | 1007.3 |
| 20260508063519 | 3 | 19 | 0.0 | 0.0 | 0.00 | 0.00 | 0.00 | 57 | 1007.2 |
| 20260508063016 | 3 | 19 | 0.0 | 0.0 | 0.00 | 0.00 | 0.00 | 56 | 1007.3 |
| 20260508062514 | 4 | 19 | 0.0 | 1.6 | 0.00 | 0.00 | 0.00 | 55 | 1007.2 |
| 20260508062014 | 4 | 21 | 0.0 | 1.6 | 0.00 | 0.00 | 0.00 | 55 | 1007.3 |
| 20260508061514 | 4 | 26 | 0.0 | 0.0 | 0.00 | 0.00 | 0.00 | 54 | 1007.2 |
| 20260508061014 | 4 | 26 | 0.0 | 0.0 | 0.00 | 0.00 | 0.00 | 54 | 1007.3 |
| 20260508060514 | 4 | 26 | 0.0 | 0.0 | 0.00 | 0.00 | 0.00 | 55 | 1007.3 |
| 20260508060013 | 4 | 26 | 0.0 | 0.0 | 0.00 | 0.00 | 0.00 | 55 | 1007.3 |
| 20260508055512 | 4 | 26 | 0.0 | 0.0 | 0.00 | 0.00 | 0.00 | 54 | 1007.3 |
| 20260508055013 | 4 | 26 | 0.0 | 0.0 | 0.00 | 0.00 | 0.00 | 54 | 1007.3 |
| 20260508054511 | 4 | 26 | 0.0 | 0.0 | 0.00 | 0.00 | 0.00 | 53 | 1007.3 |
| 20260508054013 | 5 | 26 | 0.0 | 0.0 | 0.00 | 0.00 | 0.00 | 53 | 1007.3 |
| 20260508053508 | 5 | 26 | 0.0 | 0.0 | 0.00 | 0.00 | 0.00 | 52 | 1007.3 |
| 20260508053011 | 5 | 26 | 0.0 | 0.0 | 0.00 | 0.00 | 0.00 | 52 | 1007.3 |
| 20260508052506 | 5 | 26 | 0.0 | 0.0 | 0.00 | 0.00 | 0.00 | 51 | 1007.3 |
| 20260508052005 | 5 | 26 | 0.0 | 0.0 | 0.00 | 0.00 | 0.00 | 50 | 1007.3 |
| 20260508051504 | 6 | 26 | 0.0 | 0.0 | 0.00 | 0.00 | 0.00 | 50 | 1007.3 |
| 20260508051005 | 6 | 26 | 0.0 | 0.0 | 0.00 | 0.00 | 0.00 | 49 | 1007.3 |
| 20260508050501 | 6 | 26 | 0.0 | 0.0 | 0.00 | 0.00 | 0.00 | 50 | 1007.3 |
| 20260508050104 | 6 | 26 | 0.0 | 0.0 | 0.00 | 0.00 | 0.00 | 50 | 1007.3 |
| 20260508045559 | 6 | 24 | 0.0 | 1.6 | 0.00 | 0.00 | 0.00 | 51 | 1007.3 |
| 20260508045100 | 7 | 23 | 0.0 | 1.6 | 0.00 | 0.00 | 0.00 | 49 | 1007.3 |
| 20260508044601 | 7 | 23 | 0.0 | 1.6 | 0.00 | 0.00 | 0.00 | 48 | 1007.3 |
| 20260508044059 | 7 | 23 | 0.0 | 0.0 | 0.00 | 0.00 | 0.00 | 47 | 1007.3 |
| 20260508043602 | 7 | 23 | 0.0 | 1.6 | 0.00 | 0.00 | 0.00 | 46 | 1007.3 |
| 20260508043059 | 8 | 23 | 0.0 | 1.6 | 0.00 | 0.00 | 0.00 | 45 | 1007.3 |
| 20260508042559 | 8 | 23 | 0.0 | 1.6 | 0.00 | 0.00 | 0.00 | 45 | 1007.4 |
| 20260508042058 | 8 | 23 | 0.0 | 3.2 | 0.00 | 0.00 | 0.00 | 44 | 1007.4 |
| 20260508041559 | 8 | 23 | 0.0 | 3.2 | 0.00 | 0.00 | 0.00 | 43 | 1007.5 |
| 20260508041058 | 8 | 23 | 1.6 | 3.2 | 0.00 | 0.00 | 0.00 | 43 | 1007.5 |
| 20260508040558 | 8 | 23 | 0.0 | 3.2 | 0.00 | 0.00 | 0.00 | 42 | 1007.5 |
| 20260508040101 | 9 | 23 | 0.0 | 3.2 | 0.00 | 0.00 | 0.00 | 42 | 1007.5 |
| 20260508035559 | 9 | 22 | 0.0 | 3.2 | 0.00 | 0.00 | 0.00 | 41 | 1007.5 |
| 20260508035058 | 9 | 22 | 1.6 | 3.2 | 0.00 | 0.00 | 0.00 | 42 | 1007.5 |
| 20260508034558 | 9 | 22 | 0.0 | 1.6 | 0.00 | 0.00 | 0.00 | 42 | 1007.5 |
| 20260508034057 | 8 | 22 | 0.0 | 1.6 | 0.00 | 0.00 | 0.00 | 43 | 1007.5 |
| 20260508033557 | 9 | 22 | 0.0 | 1.6 | 0.00 | 0.00 | 0.00 | 42 | 1007.5 |
| 20260508033100 | 9 | 22 | 0.0 | 1.6 | 0.00 | 0.00 | 0.00 | 41 | 1007.6 |
| 20260508032559 | 10 | 22 | 0.0 | 3.2 | 0.00 | 0.00 | 0.00 | 40 | 1007.5 |
| 20260508032059 | 10 | 22 | 0.0 | 3.2 | 0.00 | 0.00 | 0.00 | 39 | 1007.6 |
| 20260508031600 | 10 | 22 | 0.0 | 4.8 | 0.00 | 0.00 | 0.00 | 39 | 1007.6 |
| 20260508031056 | 10 | 22 | 1.6 | 4.8 | 0.00 | 0.00 | 0.00 | 38 | 1007.7 |
| 20260508030557 | 10 | 22 | 1.6 | 4.8 | 0.00 | 0.00 | 0.00 | 38 | 1007.6 |
| 20260508025559 | 11 | 20 | 0.0 | 4.8 | 0.00 | 0.00 | 0.00 | 38 | 1007.6 |
| 20260508025056 | 11 | 20 | 3.2 | 4.8 | 0.00 | 0.00 | 0.00 | 38 | 1007.6 |
| 20260508024618 | 11 | 19 | 1.6 | 4.8 | 0.00 | 0.00 | 0.00 | 38 | 1007.6 |
| 20260508024055 | 11 | 19 | 1.6 | 6.4 | 0.00 | 0.00 | 0.00 | 38 | 1007.6 |
| 20260508023555 | 11 | 18 | 3.2 | 6.4 | 0.00 | 0.00 | 0.00 | 38 | 1007.6 |
| 20260508023055 | 11 | 17 | 3.2 | 4.8 | 0.00 | 0.00 | 0.00 | 38 | 1007.6 |
| 20260508022556 | 11 | 17 | 1.6 | 4.8 | 0.00 | 0.00 | 0.00 | 37 | 1007.5 |
| 20260508022055 | 12 | 17 | 1.6 | 4.8 | 0.00 | 0.00 | 0.00 | 37 | 1007.4 |
| 20260508021604 | 12 | 17 | 0.0 | 4.8 | 0.00 | 0.00 | 0.00 | 36 | 1007.4 |
| 20260508021054 | 12 | 17 | 1.6 | 4.8 | 0.00 | 0.00 | 0.00 | 36 | 1007.3 |
| 20260508020554 | 12 | 17 | 1.6 | 4.8 | 0.00 | 0.00 | 0.00 | 36 | 1007.2 |
| 20260508020057 | 12 | 17 | 1.6 | 4.8 | 0.00 | 0.00 | 0.00 | 36 | 1007.2 |
| 20260508015554 | 13 | 17 | 1.6 | 6.4 | 0.00 | 0.00 | 0.00 | 35 | 1007.2 |
| 20260508015054 | 13 | 18 | 3.2 | 6.4 | 0.00 | 0.00 | 0.00 | 35 | 1007.1 |
| 20260508014556 | 13 | 16 | 3.2 | 6.4 | 0.00 | 0.00 | 0.00 | 33 | 1007.1 |
| 20260508014054 | 13 | 23 | 3.2 | 8.0 | 0.00 | 0.00 | 0.00 | 33 | 1007.0 |
| 20260508013552 | 14 | 12 | 3.2 | 12.9 | 0.00 | 0.00 | 0.00 | 32 | 1007.0 |
| 20260508013053 | 14 | 39 | 6.4 | 12.9 | 0.00 | 0.00 | 0.00 | 32 | 1007.0 |
| 20260508012553 | 14 | 5 | 4.8 | 12.9 | 0.00 | 0.00 | 0.00 | 32 | 1007.0 |
| 20260508012052 | 14 | 355 | 4.8 | 17.7 | 0.00 | 0.00 | 0.00 | 32 | 1006.9 |
| 20260508011601 | 14 | 343 | 8.0 | 17.7 | 0.00 | 0.00 | 0.00 | 31 | 1006.9 |
| 20260508011052 | 15 | 355 | 8.0 | 19.3 | 0.00 | 0.00 | 0.00 | 31 | 1006.8 |
| 20260508010552 | 15 | 328 | 4.8 | 22.5 | 0.00 | 0.00 | 0.00 | 30 | 1006.7 |
| 20260508010056 | 15 | 350 | 9.7 | 20.9 | 0.00 | 0.00 | 0.00 | 29 | 1006.7 |
| 20260508005555 | 15 | 329 | 14.5 | 20.9 | 0.00 | 0.00 | 0.00 | 29 | 1006.6 |
| 20260508005051 | 15 | 302 | 8.0 | 19.3 | 0.00 | 0.00 | 0.00 | 28 | 1006.6 |
| 20260508004559 | 15 | 327 | 8.0 | 19.3 | 0.00 | 0.00 | 0.00 | 29 | 1006.6 |
| 20260508004051 | 15 | 305 | 3.2 | 19.3 | 0.00 | 0.00 | 0.00 | 28 | 1006.6 |
| 20260508003551 | 16 | 298 | 6.4 | 17.7 | 0.00 | 0.00 | 0.00 | 28 | 1006.6 |
| 20260508003051 | 16 | 308 | 9.7 | 22.5 | 0.00 | 0.00 | 0.00 | 27 | 1006.6 |
| 20260508002551 | 16 | 303 | 8.0 | 22.5 | 0.00 | 0.00 | 0.00 | 28 | 1006.5 |
| 20260508002051 | 16 | 315 | 11.3 | 19.3 | 0.00 | 0.00 | 0.00 | 28 | 1006.6 |
| 20260508001551 | 16 | 316 | 11.3 | 19.3 | 0.00 | 0.00 | 0.00 | 28 | 1006.6 |
| 20260508001050 | 16 | 259 | 8.0 | 19.3 | 0.00 | 0.00 | 0.00 | 28 | 1006.6 |
| 20260508000550 | 16 | 316 | 9.7 | 20.9 | 0.00 | 0.00 | 0.00 | 28 | 1006.6 |
| 20260508000052 | 16 | 289 | 9.7 | 25.7 | 0.00 | 0.00 | 0.00 | 28 | 1006.7 |
| 20260507235550 | 16 | 287 | 11.3 | 33.8 | 0.00 | 0.00 | 0.00 | 28 | 1006.6 |
| 20260507235049 | 16 | 360 | 14.5 | 33.8 | 0.00 | 0.00 | 0.00 | 28 | 1006.6 |
| 20260507234549 | 16 | 258 | 11.3 | 24.1 | 0.00 | 0.00 | 0.00 | 28 | 1006.7 |
| 20260507234048 | 16 | 269 | 8.0 | 24.1 | 0.00 | 0.00 | 0.00 | 28 | 1006.6 |
| 20260507233548 | 16 | 346 | 4.8 | 24.1 | 0.00 | 0.00 | 0.00 | 28 | 1006.8 |
| 20260507233048 | 16 | 286 | 8.0 | 24.1 | 0.00 | 0.00 | 0.00 | 28 | 1006.8 |
| 20260507232547 | 16 | 293 | 8.0 | 24.1 | 0.00 | 0.00 | 0.00 | 29 | 1006.8 |
| 20260507232048 | 16 | 286 | 8.0 | 24.1 | 0.00 | 0.00 | 0.00 | 28 | 1006.9 |
| 20260507231546 | 16 | 327 | 6.4 | 29.0 | 0.00 | 0.00 | 0.00 | 28 | 1006.8 |
| 20260507231046 | 16 | 302 | 14.5 | 29.0 | 0.00 | 0.00 | 0.00 | 28 | 1006.9 |
| 20260507230548 | 16 | 332 | 12.9 | 29.0 | 0.00 | 0.00 | 0.00 | 28 | 1006.9 |
| 20260507225546 | 16 | 319 | 12.9 | 20.9 | 0.00 | 0.00 | 0.00 | 28 | 1007.0 |
| 20260507225044 | 16 | 306 | 6.4 | 25.7 | 0.00 | 0.00 | 0.00 | 29 | 1007.0 |
| 20260507224547 | 16 | 263 | 8.0 | 25.7 | 0.00 | 0.00 | 0.00 | 28 | 1007.2 |
| 20260507224042 | 16 | 273 | 9.7 | 29.0 | 0.00 | 0.00 | 0.00 | 29 | 1007.1 |
| 20260507223542 | 16 | 274 | 14.5 | 29.0 | 0.00 | 0.00 | 0.00 | 28 | 1007.0 |
| 20260507223042 | 16 | 329 | 17.7 | 27.4 | 0.00 | 0.00 | 0.00 | 28 | 1007.1 |
| 20260507222542 | 16 | 298 | 4.8 | 22.5 | 0.00 | 0.00 | 0.00 | 28 | 1007.2 |
| 20260507222040 | 16 | 287 | 11.3 | 19.3 | 0.00 | 0.00 | 0.00 | 29 | 1007.3 |
| 20260507221543 | 16 | 263 | 9.7 | 20.9 | 0.00 | 0.00 | 0.00 | 28 | 1007.3 |
| 20260507221039 | 15 | 300 | 8.0 | 20.9 | 0.00 | 0.00 | 0.00 | 29 | 1007.3 |
| 20260507220542 | 16 | 263 | 8.0 | 22.5 | 0.00 | 0.00 | 0.00 | 29 | 1007.4 |
| 20260507220041 | 16 | 270 | 11.3 | 25.7 | 0.00 | 0.00 | 0.00 | 29 | 1007.4 |
| 20260507215538 | 16 | 309 | 11.3 | 37.0 | 0.00 | 0.00 | 0.00 | 28 | 1007.5 |
| 20260507215037 | 16 | 266 | 14.5 | 37.0 | 0.00 | 0.00 | 0.00 | 29 | 1007.5 |
| 20260507214538 | 16 | 269 | 11.3 | 33.8 | 0.00 | 0.00 | 0.00 | 29 | 1007.6 |
| 20260507214036 | 15 | 315 | 9.7 | 22.5 | 0.00 | 0.00 | 0.00 | 29 | 1007.6 |
| 20260507213536 | 16 | 267 | 11.3 | 25.7 | 0.00 | 0.00 | 0.00 | 29 | 1007.9 |
| 20260507213034 | 16 | 323 | 12.9 | 25.7 | 0.00 | 0.00 | 0.00 | 29 | 1008.0 |
| 20260507212534 | 15 | 294 | 9.7 | 27.4 | 0.00 | 0.00 | 0.00 | 30 | 1007.9 |
| 20260507212033 | 15 | 336 | 14.5 | 27.4 | 0.00 | 0.00 | 0.00 | 30 | 1008.0 |
| 20260507211533 | 15 | 321 | 8.0 | 24.1 | 0.00 | 0.00 | 0.00 | 31 | 1008.1 |
| 20260507211033 | 15 | 279 | 9.7 | 25.7 | 0.00 | 0.00 | 0.00 | 29 | 1008.1 |
| 20260507210533 | 15 | 280 | 14.5 | 25.7 | 0.00 | 0.00 | 0.00 | 29 | 1008.1 |
| 20260507210035 | 15 | 283 | 9.7 | 30.6 | 0.00 | 0.00 | 0.00 | 30 | 1008.2 |
| 20260507205531 | 15 | 269 | 11.3 | 30.6 | 0.00 | 0.00 | 0.00 | 29 | 1008.2 |
| 20260507205031 | 15 | 323 | 16.1 | 30.6 | 0.00 | 0.00 | 0.00 | 31 | 1008.3 |
| 20260507204530 | 15 | 313 | 9.7 | 27.4 | 0.00 | 0.00 | 0.00 | 29 | 1008.4 |
| 20260507204029 | 15 | 340 | 9.7 | 27.4 | 0.00 | 0.00 | 0.00 | 29 | 1008.4 |
| 20260507203530 | 15 | 219 | 11.3 | 22.5 | 0.00 | 0.00 | 0.00 | 29 | 1008.4 |
| 20260507203040 | 15 | 309 | 9.7 | 32.2 | 0.00 | 0.00 | 0.00 | 29 | 1008.5 |
| 20260507202531 | 15 | 360 | 9.7 | 32.2 | 0.00 | 0.00 | 0.00 | 29 | 1008.6 |
| 20260507202026 | 15 | 319 | 19.3 | 32.2 | 0.00 | 0.00 | 0.00 | 29 | 1008.6 |
| 20260507201526 | 15 | 339 | 11.3 | 29.0 | 0.00 | 0.00 | 0.00 | 29 | 1008.6 |
| 20260507201025 | 15 | 136 | 9.7 | 29.0 | 0.00 | 0.00 | 0.00 | 29 | 1008.9 |
| 20260507200526 | 15 | 336 | 9.7 | 30.6 | 0.00 | 0.00 | 0.00 | 31 | 1008.8 |
| 20260507200023 | 15 | 337 | 17.7 | 30.6 | 0.00 | 0.00 | 0.00 | 30 | 1009.0 |
| 20260507195525 | 15 | 300 | 11.3 | 25.7 | 0.00 | 0.00 | 0.00 | 30 | 1009.1 |
| 20260507195022 | 15 | 287 | 11.3 | 22.5 | 0.00 | 0.00 | 0.00 | 32 | 1009.0 |
| 20260507194527 | 15 | 261 | 6.4 | 19.3 | 0.00 | 0.00 | 0.00 | 29 | 1009.0 |
| 20260507194024 | 15 | 319 | 11.3 | 20.9 | 0.00 | 0.00 | 0.00 | 32 | 1009.1 |
| 20260507193524 | 14 | 265 | 11.3 | 24.1 | 0.00 | 0.00 | 0.00 | 33 | 1009.1 |
| 20260507193021 | 14 | 256 | 11.3 | 30.6 | 0.00 | 0.00 | 0.00 | 30 | 1009.2 |
| 20260507192519 | 15 | 291 | 20.9 | 30.6 | 0.00 | 0.00 | 0.00 | 30 | 1009.2 |
| 20260507192018 | 14 | 243 | 8.0 | 24.1 | 0.00 | 0.00 | 0.00 | 31 | 1009.1 |
| 20260507191520 | 14 | 347 | 8.0 | 24.1 | 0.00 | 0.00 | 0.00 | 30 | 1009.2 |
| 20260507191017 | 14 | 273 | 11.3 | 24.1 | 0.00 | 0.00 | 0.00 | 31 | 1009.3 |
| 20260507190517 | 14 | 283 | 4.8 | 19.3 | 0.00 | 0.00 | 0.00 | 30 | 1009.2 |
| 20260507190019 | 14 | 281 | 8.0 | 24.1 | 0.00 | 0.00 | 0.00 | 33 | 1009.2 |
| 20260507185515 | 13 | 344 | 6.4 | 29.0 | 0.00 | 0.00 | 0.00 | 31 | 1009.4 |
| 20260507185016 | 13 | 273 | 12.9 | 29.0 | 0.00 | 0.00 | 0.00 | 31 | 1009.3 |
| 20260507184521 | 13 | 269 | 4.8 | 20.9 | 0.00 | 0.00 | 0.00 | 32 | 1009.1 |
| 20260507184014 | 13 | 296 | 6.4 | 35.4 | 0.00 | 0.00 | 0.00 | 33 | 1009.3 |
| 20260507183513 | 13 | 254 | 17.7 | 35.4 | 0.00 | 0.00 | 0.00 | 32 | 1009.4 |
| 20260507183014 | 13 | 254 | 20.9 | 35.4 | 0.00 | 0.00 | 0.00 | 31 | 1009.5 |
| 20260507182513 | 13 | 279 | 14.5 | 30.6 | 0.00 | 0.00 | 0.00 | 32 | 1009.4 |
| 20260507182013 | 13 | 281 | 4.8 | 24.1 | 0.00 | 0.00 | 0.00 | 32 | 1009.5 |
| 20260507181511 | 13 | 311 | 9.7 | 24.1 | 0.00 | 0.00 | 0.00 | 33 | 1009.6 |
| 20260507181013 | 13 | 236 | 8.0 | 27.4 | 0.00 | 0.00 | 0.00 | 34 | 1009.7 |
| 20260507180512 | 13 | 284 | 12.9 | 27.4 | 0.00 | 0.00 | 0.00 | 33 | 1009.9 |
| 20260507180017 | 13 | 330 | 9.7 | 24.1 | 0.00 | 0.00 | 0.00 | 35 | 1009.9 |
| 20260507175511 | 13 | 296 | 11.3 | 25.7 | 0.00 | 0.00 | 0.00 | 34 | 1009.9 |
| 20260507175008 | 13 | 234 | 11.3 | 25.7 | 0.00 | 0.00 | 0.00 | 35 | 1009.8 |
| 20260507174508 | 13 | 250 | 11.3 | 29.0 | 0.00 | 0.00 | 0.00 | 35 | 1009.9 |
| 20260507174010 | 12 | 269 | 9.7 | 29.0 | 0.00 | 0.00 | 0.00 | 36 | 1010.0 |
| 20260507173506 | 12 | 286 | 8.0 | 20.9 | 0.00 | 0.00 | 0.00 | 35 | 1010.2 |
| 20260507173011 | 13 | 308 | 3.2 | 27.4 | 0.00 | 0.00 | 0.00 | 36 | 1010.2 |
| 20260507172505 | 13 | 271 | 12.9 | 27.4 | 0.00 | 0.00 | 0.00 | 35 | 1010.3 |
| 20260507172003 | 13 | 329 | 9.7 | 24.1 | 0.00 | 0.00 | 0.00 | 37 | 1010.3 |
| 20260507171503 | 12 | 281 | 8.0 | 25.7 | 0.00 | 0.00 | 0.00 | 37 | 1010.4 |
| 20260507171002 | 12 | 270 | 11.3 | 22.5 | 0.00 | 0.00 | 0.00 | 37 | 1010.6 |
| 20260507170502 | 12 | 283 | 12.9 | 27.4 | 0.00 | 0.00 | 0.00 | 37 | 1010.5 |
| 20260507170105 | 12 | 252 | 14.5 | 27.4 | 0.00 | 0.00 | 0.00 | 36 | 1010.6 |
| 20260507170002 | 12 | 267 | 9.7 | 25.7 | 0.00 | 0.00 | 0.00 | 36 | 1010.6 |
| 20260507165559 | 12 | 333 | 11.3 | 25.7 | 0.00 | 0.00 | 0.00 | 37 | 1010.6 |
| 20260507165101 | 12 | 288 | 8.0 | 24.1 | 0.00 | 0.00 | 0.00 | 37 | 1010.7 |
| 20260507164559 | 12 | 269 | 9.7 | 22.5 | 0.00 | 0.00 | 0.00 | 38 | 1010.7 |
| 20260507164057 | 12 | 282 | 8.0 | 22.5 | 0.00 | 0.00 | 0.00 | 37 | 1010.7 |
| 20260507163557 | 11 | 269 | 6.4 | 22.5 | 0.00 | 0.00 | 0.00 | 36 | 1010.8 |
| 20260507163056 | 12 | 268 | 8.0 | 24.1 | 0.00 | 0.00 | 0.00 | 38 | 1010.9 |
| 20260507162557 | 12 | 88 | 6.4 | 24.1 | 0.00 | 0.00 | 0.00 | 38 | 1010.7 |
| 20260507162056 | 12 | 269 | 9.7 | 24.1 | 0.00 | 0.00 | 0.00 | 40 | 1010.9 |
| 20260507161602 | 11 | 263 | 11.3 | 24.1 | 0.00 | 0.00 | 0.00 | 41 | 1010.9 |
| 20260507161053 | 11 | 281 | 9.7 | 27.4 | 0.00 | 0.00 | 0.00 | 41 | 1011.0 |
| 20260507160553 | 12 | 282 | 11.3 | 19.3 | 0.00 | 0.00 | 0.00 | 42 | 1011.1 |
| 20260507160059 | 11 | 282 | 9.7 | 19.3 | 0.00 | 0.00 | 0.00 | 43 | 1011.1 |
| 20260507155549 | 11 | 279 | 8.0 | 14.5 | 0.00 | 0.00 | 0.00 | 45 | 1011.1 |
| 20260507155048 | 11 | 272 | 6.4 | 14.5 | 0.00 | 0.00 | 0.00 | 46 | 1011.2 |
| 20260507154547 | 11 | 281 | 4.8 | 11.3 | 0.00 | 0.00 | 0.00 | 48 | 1011.1 |
| 20260507154044 | 11 | 198 | 3.2 | 22.5 | 0.00 | 0.00 | 0.00 | 47 | 1011.2 |
| 20260507153543 | 10 | 281 | 11.3 | 22.5 | 0.00 | 0.00 | 0.00 | 48 | 1011.1 |
| 20260507153042 | 10 | 254 | 3.2 | 16.1 | 0.00 | 0.00 | 0.00 | 48 | 1011.1 |
| 20260507152541 | 10 | 246 | 6.4 | 19.3 | 0.00 | 0.00 | 0.00 | 49 | 1011.2 |
| 20260507152039 | 10 | 331 | 8.0 | 19.3 | 0.00 | 0.00 | 0.00 | 49 | 1011.2 |
| 20260507151538 | 10 | 249 | 9.7 | 22.5 | 0.00 | 0.00 | 0.00 | 49 | 1011.2 |
| 20260507151036 | 10 | 291 | 8.0 | 14.5 | 0.00 | 0.00 | 0.00 | 50 | 1011.3 |
| 20260507150535 | 10 | 278 | 4.8 | 19.3 | 0.00 | 0.00 | 0.00 | 52 | 1011.4 |
| 20260507150039 | 9 | 199 | 3.2 | 22.5 | 0.00 | 0.00 | 0.00 | 54 | 1011.4 |
| 20260507145533 | 8 | 274 | 9.7 | 19.3 | 0.00 | 0.00 | 0.00 | 54 | 1011.4 |
| 20260507145033 | 8 | 263 | 8.0 | 17.7 | 0.00 | 0.00 | 0.00 | 55 | 1011.4 |
| 20260507144531 | 8 | 275 | 4.8 | 16.1 | 0.00 | 0.00 | 0.00 | 56 | 1011.5 |
| 20260507144029 | 8 | 311 | 4.8 | 16.1 | 0.00 | 0.00 | 0.00 | 57 | 1011.7 |
| 20260507143526 | 7 | 257 | 1.6 | 11.3 | 0.00 | 0.00 | 0.00 | 59 | 1011.6 |
| 20260507143026 | 7 | 249 | 3.2 | 11.3 | 0.00 | 0.00 | 0.00 | 62 | 1011.7 |
| 20260507142524 | 6 | 277 | 3.2 | 11.3 | 0.00 | 0.00 | 0.00 | 65 | 1011.8 |
| 20260507142027 | 5 | 250 | 4.8 | 9.7 | 0.00 | 0.00 | 0.00 | 68 | 1011.8 |
| 20260507141526 | 5 | 222 | 3.2 | 11.3 | 0.00 | 0.00 | 0.00 | 69 | 1011.7 |
| 20260507141020 | 4 | 221 | 1.6 | 12.9 | 0.00 | 0.00 | 0.00 | 70 | 1011.7 |
| 20260507140521 | 3 | 254 | 3.2 | 12.9 | 0.00 | 0.00 | 0.00 | 71 | 1011.9 |
| 20260507140017 | 3 | 231 | 1.6 | 9.7 | 0.00 | 0.00 | 0.00 | 71 | 1011.9 |